Other Public Products
Issued by NWS Charleston, SC

Current Version | Previous Version | Graphics & Text | Print | Product List | Glossary On
Versions: 1 2 3 4 5 6 7 8 9 10 11 12 13 14 15 16 17 18 19 20 21 22 23 24 25 26 27 28 29 30 31 32 33 34 35 36 37 38 39 40 41 42 43 44 45 46 47 48 49 50
239 FPUS82 KCHS 261012 OPUCHS TEST...KCHS/KSAV Gateway Observations...TEST National Weather Service Charleston SC 600 AM EDT THU APR 26 2018 NOTE: "fair" indicates few or no clouds below 12,000 feet with no significant weather and/or obstructions to visibility. SCZ050-WAZ558-NCZ071-TXZ119-213-PAZ071-DCZ001-FLZ074-172-MI076- NYZ176-178-MAZ016-IL014-TNZ027-NJZ106-GAZ044-MD014-261100- ...Gateway Observations for Charleston International... CITY SKY/WX TMP DP RH WIND PRES REMARKS Chas Airport FAIR 56 54 93 SW3 29.84R Seattle PTCLDY 55 39 54 N7 30.04F Charlotte CLOUDY 57 53 86 N5 29.86S Dallas DFW CLEAR 48 43 82 W9 30.01F Dallas Love CLEAR 47 43 86 NW3 30.03S Philladelphia FAIR 52 40 63 W15 29.75R Wash National MOCLDY 50 38 63 W3 29.82F Baltimore FAIR 46 39 76 W8 29.79F Miami FAIR 66 62 87 N6 29.93S Detroit FAIR 39 36 89 W6 29.93S FOG WCI 35 Newark FAIR 55 50 83 W10G20 29.64R Laguardia MOCLDY 58 50 75 NW12 29.62R J F K MOCLDY 58 53 84 W10 29.63R Boston Logan RAIN 53 53 100 SE7 29.56F VSB 1/2 Ft. Lauderdale FAIR 66 62 87 NW5 29.92S Chicago O`Hare FAIR 37 29 72 CALM 29.95S Chicago Midway FAIR 36 30 79 CALM 29.95F Houston Bush MOCLDY 57 49 74 N10 30.03S Houston Hobby MOCLDY 59 51 75 N21 30.01S Nashville CLOUDY 57 51 80 CALM 29.85F Atlanta MOCLDY 51 49 92 CALM 29.85F $$ GAZ044-118-TXZ119-213-NCZ071-DCZ001-MDZ014-506-PAZ021-071-NJZ106- NYZ176-178-MAZ106-OHZ011-021-055-MIZ076-KYZ091-ILZ014-INZ047- MNZ060-ONZ431-261100- ...Gateway Observations for Savannah International... CITY SKY/WX TMP DP RH WIND PRES REMARKS Savannah Arpt FAIR 57 53 86 CALM 29.87R Atlanta MOCLDY 51 49 92 CALM 29.85F Charlotte CLOUDY 57 53 86 N5 29.86S Dallas DFW CLEAR 48 43 82 W9 30.01F Houston Bush MOCLDY 57 49 74 N10 30.03S Wash National MOCLDY 50 38 63 W3 29.82F Wash Dulles MOCLDY 46 39 76 W3 29.83S Baltimore FAIR 46 39 76 W8 29.79F Philadelphia FAIR 52 40 63 W15 29.75R Newark FAIR 55 50 83 W10G20 29.64R Laguardia MOCLDY 58 50 75 NW12 29.62R J F K MOCLDY 58 53 84 W10 29.63R Boston RAIN 53 53 100 SE7 29.56F VSB 1/2 Pittsburg MOCLDY 40 34 79 NW14 29.90R WCI 32 Akron FAIR 35 32 88 NE3 29.93R Cleveland FAIR 35 33 92 S3 29.95F Cincinnati MOCLDY 45 34 65 N6 29.89S Columbus FAIR 41 41 100 NE7 29.91R Detroit FAIR 39 36 89 W6 29.93S FOG WCI 35 Chicago O`Hare FAIR 37 29 72 CALM 29.95S Minneapolis CLOUDY 47 34 60 SW6 29.88F Indianapolis MOCLDY 38 31 76 NW3 29.91S Toronto Canada MOCLDY 39 36 87 NW21 29.78S WCI 29 $$

USA.gov is the U.S. government's official web portal to all federal, state and local government web resources and services.